Regional Weather Roundup
Issued by NWS Albany, NY

Home | Current Version | Previous Version | Text Only | Print | Product List | Glossary On
Versions: 1 2 3 4 5 6 7 8 9 10 11 12 13 14 15 16 17 18 19 20 21 22 23 24 25 26 27 28 29 30 31 32 33 34 35 36 37 38 39 40 41 42 43 44 45 46 47 48 49 50
000
ASUS41 KALY 170710
RWRALY

NEW YORK STATE HOURLY WEATHER ROUNDUP
NATIONAL WEATHER SERVICE ALBANY NY
200 AM EST TUE JAN 17 2017

NOTE: "FAIR" INDICATES FEW OR NO CLOUDS BELOW 12,000 FEET WITH NO
SIGNIFICANT WEATHER AND/OR NO OBSTRUCTIONS TO VISIBILITY.

NYZ032-033-038>043-046>054-057>066-NYZ062>081-082-084-170800-
EAST


CITY           SKY/WX    TMP DP  RH WIND       PRES   REMARKS
ALBANY         CLOUDY    22  17  81 CALM      30.25R
GLENS FALLS    CLEAR     19  13  77 CALM      30.23R
POUGHKEEPSIE   CLOUDY    36  26  67 SW6       30.24S WCI  31
NEWBURGH       CLOUDY    36  28  75 W6        30.24F WCI  31
MONTGOMERY     CLOUDY    36  27  69 SW7       30.22F WCI  30
WHITE PLAINS   MOCLDY    38  24  57 W5        30.23F WCI  34
ISLIP          CLOUDY    39  28  64 W7        30.25F WCI  34
NEW YORK CITY  CLOUDY    42  26  53 SW7       30.26F
CENTRAL PARK   CLOUDY    40  26  57 VRB5      30.28F
$$

NYZ005>009-017-018-044>046-055-056-170800-
CENTRAL


CITY           SKY/WX    TMP DP  RH WIND       PRES   REMARKS
FULTON         CLOUDY    24  20  84 CALM      30.22F
SYRACUSE       MOCLDY    27  21  78 NE3       30.22S
ROME           CLOUDY    19  16  88 CALM      30.25S
ELMIRA         CLOUDY    33  26  75 CALM      30.20S
BINGHAMTON     CLOUDY    31  25  78 CALM      30.17F
MONTICELLO     PTCLDY    32  27  80 CALM      30.20F
$$

NYZ026>034-041>043-087-170800-
NORTH


CITY           SKY/WX    TMP DP  RH WIND       PRES   REMARKS
WATERTOWN      CLOUDY    18  17  96 CALM      30.23S
FORT DRUM      NOT AVBL
OGDENSBURG     FAIR      23  22  96 S3        30.23S FOG
MASSENA        CLEAR     27  23  85 SW6       30.25R WCI  20
SARANAC LAKE   CLEAR     11   7  84 CALM      30.16R
PLATTSBURGH    CLEAR     25  15  66 CALM      30.21R
$$

NYZ001>004-010>016-019>021-085-170800-
WEST


CITY           SKY/WX    TMP DP  RH WIND       PRES   REMARKS
NIAGARA FALLS  CLOUDY    34  26  72 E3        30.16F
BUFFALO        LGT RAIN  33  27  78 E6        30.16F WCI  28
DUNKIRK        LGT RAIN  34  30  85 CALM      30.15F
JAMESTOWN      CLOUDY    34  27  75 SE5       30.11F WCI  30
WELLSVILLE     CLOUDY    36  26  67 SE5       30.15S WCI  32
ROCHESTER      CLOUDY    34  24  67 E3        30.19F
PENN YAN       CLOUDY    35  25  66 S3        30.18F
$$

             KEY
       WCI = WIND CHILL INDEX
       VSB = VISIBILITY
       HX  = HEAT INDEX
$$



USA.gov is the U.S. government's official web portal to all federal, state and local government web resources and services.